Time,TemperatureF,DewpointF,PressureIn,WindDirection,WindDirectionDegrees,WindSpeedMPH,WindSpeedGustMPH,Humidity,HourlyPrecipIn,Conditions,Clouds,dailyrainin,SoftwareType,DateUTC
2013-03-20 00:02:00,18.0,10.0,-100.00,NNW,330,22.0,28.0,71,0.00,,,-99.99,,2013-03-20 05:02:00,
2013-03-20 00:12:00,17.0,9.0,-100.00,NW,320,24.0,27.0,70,0.00,,,-99.99,,2013-03-20 05:12:00,
2013-03-20 00:22:00,17.0,9.0,-100.00,NW,320,24.0,27.0,70,0.00,,,-99.99,,2013-03-20 05:22:00,
2013-03-20 00:32:00,17.0,9.0,-100.00,NNW,330,21.0,27.0,71,0.01,,,-99.99,,2013-03-20 05:32:00,
2013-03-20 00:42:00,17.0,9.0,-100.00,NNW,335,24.0,27.0,71,0.00,,,-99.99,,2013-03-20 05:42:00,
2013-03-20 00:52:00,17.0,9.0,-100.00,NW,325,22.0,29.0,71,0.01,,,-99.99,,2013-03-20 05:52:00,
2013-03-20 01:02:00,17.0,9.0,-100.00,NNW,335,21.0,26.0,72,0.00,,,-99.99,,2013-03-20 06:02:00,
2013-03-20 01:12:00,16.0,9.0,-100.00,NNW,330,24.0,29.0,72,0.00,,,-99.99,,2013-03-20 06:12:00,
2013-03-20 01:22:00,16.0,8.0,-100.00,NNW,330,21.0,29.0,71,0.00,,,-99.99,,2013-03-20 06:22:00,
2013-03-20 01:32:00,16.0,8.0,-100.00,NNW,330,21.0,29.0,71,0.00,,,-99.99,,2013-03-20 06:32:00,
2013-03-20 01:42:00,16.0,9.0,-100.00,NW,325,21.0,26.0,72,0.01,,,-99.99,,2013-03-20 06:42:00,
2013-03-20 01:52:00,16.0,9.0,-100.00,NW,320,22.0,26.0,72,0.01,,,-99.99,,2013-03-20 06:52:00,
2013-03-20 02:02:00,15.0,8.0,-100.00,NNW,330,21.0,24.0,72,0.00,,,-99.99,,2013-03-20 07:02:00,
2013-03-20 02:12:00,15.0,8.0,-100.00,NW,325,23.0,27.0,72,0.00,,,-99.99,,2013-03-20 07:12:00,
2013-03-20 02:22:00,15.0,7.0,-100.00,NNW,330,24.0,28.0,71,0.00,,,-99.99,,2013-03-20 07:22:00,
2013-03-20 02:32:00,14.0,6.0,-100.00,NW,320,22.0,27.0,70,0.00,,,-99.99,,2013-03-20 07:32:00,
2013-03-20 02:42:00,14.0,6.0,-100.00,NW,320,22.0,27.0,70,0.00,,,-99.99,,2013-03-20 07:42:00,
2013-03-20 02:52:00,14.0,6.0,-100.00,NW,325,21.0,25.0,70,0.00,,,-99.99,,2013-03-20 07:52:00,
2013-03-20 03:02:00,14.0,6.0,-100.00,NW,320,20.0,25.0,70,0.00,,,-99.99,,2013-03-20 08:02:00,
2013-03-20 03:12:00,13.0,5.0,-100.00,NW,320,24.0,29.0,70,0.00,,,-99.99,,2013-03-20 08:12:00,
2013-03-20 03:22:00,13.0,5.0,-100.00,NW,320,24.0,29.0,70,0.00,,,-99.99,,2013-03-20 08:22:00,
2013-03-20 03:32:00,13.0,5.0,-100.00,NW,325,22.0,26.0,71,0.00,,,-99.99,,2013-03-20 08:32:00,
2013-03-20 03:42:00,13.0,6.0,-100.00,NW,315,20.0,24.0,72,0.00,,,-99.99,,2013-03-20 08:42:00,
2013-03-20 03:52:00,12.0,5.0,-100.00,NW,325,22.0,28.0,72,0.00,,,-99.99,,2013-03-20 08:52:00,
2013-03-20 04:02:00,12.0,5.0,-100.00,NW,325,22.0,28.0,72,0.00,,,-99.99,,2013-03-20 09:02:00,
2013-03-20 04:12:00,12.0,5.0,-100.00,NNW,330,21.0,27.0,72,0.00,,,-99.99,,2013-03-20 09:12:00,
2013-03-20 04:22:00,12.0,5.0,-100.00,NW,320,19.0,24.0,72,0.00,,,-99.99,,2013-03-20 09:22:00,
2013-03-20 04:32:00,12.0,5.0,-100.00,NW,320,20.0,27.0,73,0.00,,,-99.99,,2013-03-20 09:32:00,
2013-03-20 04:43:00,11.0,5.0,-100.00,NW,320,19.0,24.0,73,0.00,,,-99.99,,2013-03-20 09:43:00,
2013-03-20 04:52:00,11.0,4.0,-100.00,NW,320,19.0,24.0,73,0.00,,,-99.99,,2013-03-20 09:52:00,
2013-03-20 05:03:00,11.0,4.0,-100.00,NW,320,19.0,24.0,73,0.00,,,-99.99,,2013-03-20 10:03:00,
2013-03-20 05:12:00,11.0,4.0,-100.00,NW,315,18.0,20.0,74,0.00,,,-99.99,,2013-03-20 10:12:00,
2013-03-20 05:22:00,11.0,4.0,-100.00,NW,315,15.0,24.0,74,0.00,,,-99.99,,2013-03-20 10:22:00,
2013-03-20 05:32:00,11.0,4.0,-100.00,NW,320,17.0,22.0,74,0.00,,,-99.99,,2013-03-20 10:32:00,
2013-03-20 05:42:00,11.0,4.0,-100.00,NW,320,17.0,22.0,74,0.00,,,-99.99,,2013-03-20 10:42:00,
2013-03-20 05:52:00,10.0,4.0,-100.00,NW,320,19.0,24.0,74,0.00,,,-99.99,,2013-03-20 10:52:00,
2013-03-20 06:03:00,10.0,4.0,-100.00,NW,320,19.0,24.0,74,0.00,,,-99.99,,2013-03-20 11:03:00,
2013-03-20 06:12:00,10.0,4.0,-100.00,NW,320,19.0,24.0,74,0.00,,,-99.99,,2013-03-20 11:12:00,
2013-03-20 06:22:00,10.0,4.0,-100.00,NW,315,16.0,22.0,74,0.00,,,-99.99,,2013-03-20 11:22:00,
2013-03-20 06:32:00,10.0,4.0,-100.00,NW,315,16.0,22.0,74,0.00,,,-99.99,,2013-03-20 11:32:00,
2013-03-20 06:42:00,10.0,3.0,-100.00,NW,315,15.0,22.0,74,0.00,,,-99.99,,2013-03-20 11:42:00,
2013-03-20 06:52:00,10.0,3.0,-100.00,NW,315,18.0,21.0,74,0.00,,,-99.99,,2013-03-20 11:52:00,
2013-03-20 07:02:00,10.0,3.0,-100.00,NW,315,18.0,21.0,74,0.00,,,-99.99,,2013-03-20 12:02:00,
2013-03-20 07:12:00,10.0,3.0,-100.00,NW,315,18.0,21.0,74,0.00,,,-99.99,,2013-03-20 12:12:00,
2013-03-20 07:22:00,10.0,3.0,-100.00,NW,315,16.0,21.0,74,0.00,,,-99.99,,2013-03-20 12:22:00,
2013-03-20 07:32:00,10.0,3.0,-100.00,NW,310,16.0,22.0,74,0.00,,,-99.99,,2013-03-20 12:32:00,
2013-03-20 07:42:00,10.0,3.0,-100.00,NW,310,16.0,22.0,74,0.00,,,-99.99,,2013-03-20 12:42:00,
2013-03-20 07:52:00,10.0,3.0,-100.00,NW,310,14.0,18.0,74,0.00,,,-99.99,,2013-03-20 12:52:00,
2013-03-20 08:03:00,10.0,3.0,-100.00,NW,310,14.0,18.0,74,0.00,,,-99.99,,2013-03-20 13:03:00,
2013-03-20 08:12:00,10.0,4.0,-100.00,NW,315,15.0,18.0,74,0.00,,,-99.99,,2013-03-20 13:12:00,
2013-03-20 08:22:00,10.0,4.0,-100.00,NW,315,12.0,16.0,74,0.00,,,-99.99,,2013-03-20 13:22:00,
2013-03-20 08:32:00,11.0,4.0,-100.00,NW,325,14.0,17.0,74,0.00,,,-99.99,,2013-03-20 13:32:00,
2013-03-20 08:42:00,11.0,4.0,-100.00,NW,325,14.0,17.0,74,0.00,,,-99.99,,2013-03-20 13:42:00,
2013-03-20 08:52:00,11.0,5.0,-100.00,NW,320,16.0,19.0,73,0.00,,,-99.99,,2013-03-20 13:52:00,
2013-03-20 09:02:00,11.0,5.0,-100.00,NW,320,16.0,19.0,73,0.00,,,-99.99,,2013-03-20 14:02:00,
2013-03-20 09:12:00,12.0,5.0,-100.00,NW,325,17.0,19.0,73,0.00,,,-99.99,,2013-03-20 14:12:00,
2013-03-20 09:22:00,12.0,5.0,-100.00,NW,325,17.0,19.0,72,0.00,,,-99.99,,2013-03-20 14:22:00,
2013-03-20 09:33:00,13.0,5.0,-100.00,NW,325,16.0,20.0,70,0.00,,,-99.99,,2013-03-20 14:33:00,
2013-03-20 09:42:00,13.0,5.0,-100.00,NW,325,16.0,20.0,70,0.00,,,-99.99,,2013-03-20 14:42:00,
2013-03-20 09:52:00,14.0,6.0,-100.00,NW,315,13.0,19.0,69,0.00,,,-99.99,,2013-03-20 14:52:00,
2013-03-20 10:02:00,14.0,6.0,-100.00,NW,315,13.0,19.0,69,0.00,,,-99.99,,2013-03-20 15:02:00,
2013-03-20 10:12:00,14.0,6.0,-100.00,NW,315,15.0,18.0,69,0.00,,,-99.99,,2013-03-20 15:12:00,
2013-03-20 10:22:00,15.0,6.0,-100.00,NW,320,14.0,18.0,68,0.00,,,-99.99,,2013-03-20 15:22:00,
2013-03-20 10:33:00,16.0,7.0,-100.00,NW,325,19.0,22.0,66,0.00,,,-99.99,,2013-03-20 15:33:00,
2013-03-20 10:43:00,16.0,7.0,-100.00,NW,325,19.0,22.0,66,0.00,,,-99.99,,2013-03-20 15:43:00,
2013-03-20 10:52:00,16.0,7.0,-100.00,NW,325,21.0,24.0,65,0.00,,,-99.99,,2013-03-20 15:52:00,
2013-03-20 11:03:00,16.0,7.0,-100.00,NNW,340,21.0,26.0,64,0.00,,,-99.99,,2013-03-20 16:03:00,
2013-03-20 11:12:00,17.0,7.0,-100.00,NNW,330,17.0,24.0,64,0.00,,,-99.99,,2013-03-20 16:12:00,
2013-03-20 11:23:00,18.0,8.0,-100.00,NW,325,19.0,26.0,63,0.00,,,-99.99,,2013-03-20 16:23:00,
2013-03-20 11:32:00,18.0,8.0,-100.00,NNW,335,17.0,24.0,62,0.00,,,-99.99,,2013-03-20 16:32:00,
2013-03-20 11:42:00,18.0,8.0,-100.00,NNW,335,17.0,24.0,62,0.00,,,-99.99,,2013-03-20 16:42:00,
2013-03-20 11:52:00,20.0,9.0,-100.00,NNW,335,17.0,24.0,61,0.00,,,-99.99,,2013-03-20 16:52:00,
2013-03-20 12:03:00,20.0,9.0,-100.00,NNW,335,17.0,24.0,61,0.00,,,-99.99,,2013-03-20 17:03:00,
2013-03-20 12:12:00,19.0,8.0,-100.00,NNW,330,20.0,24.0,61,0.00,,,-99.99,,2013-03-20 17:12:00,
2013-03-20 12:22:00,20.0,8.0,-100.00,NW,315,18.0,26.0,59,0.00,,,-99.99,,2013-03-20 17:22:00,
2013-03-20 12:32:00,21.0,9.0,-100.00,NNW,330,15.0,26.0,59,0.00,,,-99.99,,2013-03-20 17:32:00,
2013-03-20 12:42:00,21.0,9.0,-100.00,NNW,330,15.0,26.0,59,0.00,,,-99.99,,2013-03-20 17:42:00,
2013-03-20 12:52:00,20.0,9.0,-100.00,NNW,335,19.0,22.0,59,0.00,,,-99.99,,2013-03-20 17:52:00,
2013-03-20 13:02:00,20.0,9.0,-100.00,NNW,335,19.0,22.0,59,0.00,,,-99.99,,2013-03-20 18:02:00,
2013-03-20 13:12:00,21.0,9.0,-100.00,NW,305,14.0,21.0,59,0.00,,,-99.99,,2013-03-20 18:12:00,
2013-03-20 13:22:00,22.0,10.0,-100.00,NW,310,16.0,25.0,59,0.00,,,-99.99,,2013-03-20 18:22:00,
2013-03-20 13:33:00,22.0,10.0,-100.00,NW,310,19.0,24.0,59,0.00,,,-99.99,,2013-03-20 18:33:00,
2013-03-20 13:42:00,22.0,10.0,-100.00,NW,310,19.0,24.0,59,0.00,,,-99.99,,2013-03-20 18:42:00,
2013-03-20 13:52:00,22.0,11.0,-100.00,NW,320,17.0,22.0,59,0.00,,,-99.99,,2013-03-20 18:52:00,
2013-03-20 14:02:00,22.0,11.0,-100.00,NW,320,17.0,22.0,59,0.00,,,-99.99,,2013-03-20 19:02:00,
2013-03-20 14:12:00,22.0,10.0,-100.00,NW,310,19.0,24.0,59,0.00,,,-99.99,,2013-03-20 19:12:00,
2013-03-20 14:22:00,22.0,10.0,-100.00,NW,310,19.0,24.0,58,0.00,,,-99.99,,2013-03-20 19:22:00,
2013-03-20 14:32:00,23.0,11.0,-100.00,NNW,330,15.0,26.0,59,0.00,,,-99.99,,2013-03-20 19:32:00,
2013-03-20 14:42:00,23.0,11.0,-100.00,NNW,330,15.0,26.0,59,0.00,,,-99.99,,2013-03-20 19:42:00,
2013-03-20 14:52:00,23.0,11.0,-100.00,NW,310,19.0,22.0,58,0.00,,,-99.99,,2013-03-20 19:52:00,
2013-03-20 15:02:00,23.0,11.0,-100.00,NW,310,19.0,22.0,58,0.00,,,-99.99,,2013-03-20 20:02:00,
2013-03-20 15:12:00,23.0,11.0,-100.00,NW,325,16.0,22.0,59,0.00,,,-99.99,,2013-03-20 20:12:00,
2013-03-20 15:22:00,24.0,11.0,-100.00,NNW,330,19.0,23.0,59,0.00,,,-99.99,,2013-03-20 20:22:00,
2013-03-20 15:32:00,23.0,11.0,-100.00,NW,310,19.0,24.0,58,0.00,,,-99.99,,2013-03-20 20:32:00,
2013-03-20 15:42:00,23.0,11.0,-100.00,NW,310,19.0,24.0,58,0.00,,,-99.99,,2013-03-20 20:42:00,
2013-03-20 15:52:00,24.0,12.0,-100.00,NW,320,21.0,30.0,58,0.00,,,-99.99,,2013-03-20 20:52:00,
2013-03-20 16:02:00,24.0,12.0,-100.00,NW,320,21.0,30.0,58,0.00,,,-99.99,,2013-03-20 21:02:00,
2013-03-20 16:12:00,24.0,12.0,-100.00,NW,320,18.0,24.0,58,0.00,,,-99.99,,2013-03-20 21:12:00,
2013-03-20 16:22:00,24.0,11.0,-100.00,NW,320,19.0,24.0,58,0.00,,,-99.99,,2013-03-20 21:22:00,
2013-03-20 16:33:00,25.0,12.0,-100.00,NW,310,16.0,21.0,58,0.00,,,-99.99,,2013-03-20 21:33:00,
2013-03-20 16:42:00,25.0,12.0,-100.00,NW,310,16.0,21.0,58,0.00,,,-99.99,,2013-03-20 21:42:00,
2013-03-20 16:52:00,24.0,11.0,-100.00,NNW,330,16.0,22.0,58,0.00,,,-99.99,,2013-03-20 21:52:00,
2013-03-20 17:03:00,24.0,11.0,-100.00,NNW,330,16.0,22.0,58,0.00,,,-99.99,,2013-03-20 22:03:00,
2013-03-20 17:12:00,24.0,12.0,-100.00,NNW,330,16.0,22.0,57,0.00,,,-99.99,,2013-03-20 22:12:00,
2013-03-20 17:23:00,24.0,11.0,-100.00,NNW,335,19.0,22.0,57,0.00,,,-99.99,,2013-03-20 22:23:00,
2013-03-20 17:32:00,24.0,11.0,-100.00,NW,320,17.0,21.0,57,0.00,,,-99.99,,2013-03-20 22:32:00,
2013-03-20 17:42:00,24.0,11.0,-100.00,NW,320,17.0,21.0,57,0.00,,,-99.99,,2013-03-20 22:42:00,
2013-03-20 17:52:00,24.0,11.0,-100.00,NW,320,14.0,21.0,57,0.00,,,-99.99,,2013-03-20 22:52:00,
2013-03-20 18:02:00,24.0,11.0,-100.00,NW,320,14.0,21.0,57,0.00,,,-99.99,,2013-03-20 23:02:00,
2013-03-20 18:12:00,24.0,11.0,-100.00,NNW,330,17.0,20.0,57,0.00,,,-99.99,,2013-03-20 23:12:00,
2013-03-20 18:22:00,24.0,11.0,-100.00,NW,315,14.0,21.0,57,0.00,,,-99.99,,2013-03-20 23:22:00,
2013-03-20 18:32:00,24.0,11.0,-100.00,NNW,330,16.0,20.0,57,0.00,,,-99.99,,2013-03-20 23:32:00,
2013-03-20 18:42:00,24.0,11.0,-100.00,NNW,330,16.0,20.0,57,0.00,,,-99.99,,2013-03-20 23:42:00,
2013-03-20 18:52:00,24.0,11.0,-100.00,NW,325,14.0,21.0,57,0.00,,,-99.99,,2013-03-20 23:52:00,
2013-03-20 19:02:00,23.0,11.0,-100.00,NNW,345,13.0,19.0,57,0.00,,,-99.99,,2013-03-21 00:02:00,
2013-03-20 19:12:00,23.0,11.0,-100.00,NNW,340,14.0,18.0,58,0.00,,,-99.99,,2013-03-21 00:12:00,
2013-03-20 19:22:00,23.0,11.0,-100.00,NNW,330,15.0,19.0,59,0.00,,,-99.99,,2013-03-21 00:22:00,
2013-03-20 19:32:00,22.0,10.0,-100.00,NNW,335,14.0,17.0,59,0.00,,,-99.99,,2013-03-21 00:32:00,
2013-03-20 19:42:00,22.0,10.0,-100.00,NNW,335,14.0,17.0,59,0.00,,,-99.99,,2013-03-21 00:42:00,
2013-03-20 19:52:00,21.0,10.0,-100.00,NNW,335,13.0,16.0,60,0.00,,,-99.99,,2013-03-21 00:52:00,
2013-03-20 20:02:00,21.0,10.0,-100.00,NNW,335,13.0,16.0,60,0.00,,,-99.99,,2013-03-21 01:02:00,
2013-03-20 20:12:00,21.0,10.0,-100.00,NNW,335,13.0,16.0,60,0.00,,,-99.99,,2013-03-21 01:12:00,
2013-03-20 20:22:00,20.0,10.0,-100.00,NNW,340,11.0,12.0,64,0.00,,,-99.99,,2013-03-21 01:22:00,
2013-03-20 20:32:00,20.0,10.0,-100.00,NNW,345,8.0,11.0,65,0.00,,,-99.99,,2013-03-21 01:32:00,
2013-03-20 20:42:00,19.0,11.0,-100.00,North,350,8.0,9.0,67,0.00,,,-99.99,,2013-03-21 01:42:00,
2013-03-20 20:53:00,19.0,11.0,-100.00,North,355,7.0,10.0,68,0.00,,,-99.99,,2013-03-21 01:53:00,
2013-03-20 21:02:00,18.0,11.0,-100.00,North,350,9.0,10.0,70,0.00,,,-99.99,,2013-03-21 02:02:00,
2013-03-20 21:12:00,18.0,10.0,-100.00,North,355,7.0,9.0,70,0.00,,,-99.99,,2013-03-21 02:12:00,
2013-03-20 21:22:00,18.0,10.0,-100.00,NNW,345,6.0,9.0,71,0.00,,,-99.99,,2013-03-21 02:22:00,
2013-03-20 21:32:00,17.0,10.0,-100.00,NNW,340,6.0,7.0,71,0.00,,,-99.99,,2013-03-21 02:32:00,
2013-03-20 21:42:00,17.0,10.0,-100.00,NNW,340,6.0,7.0,71,0.00,,,-99.99,,2013-03-21 02:42:00,
2013-03-20 21:51:00,17.0,10.0,-100.00,NNW,340,6.0,7.0,71,0.00,,,-99.99,,2013-03-21 02:51:00,
2013-03-20 22:02:00,17.0,10.0,-100.00,NW,320,5.0,6.0,75,0.00,,,-99.99,,2013-03-21 03:02:00,
2013-03-20 22:12:00,16.0,10.0,-100.00,NNW,340,6.0,7.0,75,0.00,,,-99.99,,2013-03-21 03:12:00,
2013-03-20 22:22:00,16.0,10.0,-100.00,NNW,340,7.0,9.0,76,0.00,,,-99.99,,2013-03-21 03:22:00,
2013-03-20 22:33:00,16.0,9.0,-100.00,North,355,6.0,7.0,76,0.00,,,-99.99,,2013-03-21 03:33:00,
2013-03-20 22:43:00,16.0,9.0,-100.00,North,355,6.0,7.0,76,0.00,,,-99.99,,2013-03-21 03:43:00,
2013-03-20 22:53:00,15.0,9.0,-100.00,North,355,6.0,6.0,76,0.00,,,-99.99,,2013-03-21 03:53:00,
2013-03-20 23:03:00,14.0,9.0,-100.00,North,5,7.0,9.0,77,0.00,,,-99.99,,2013-03-21 04:03:00,
2013-03-20 23:13:00,15.0,10.0,-100.00,North,5,7.0,9.0,77,0.00,,,-99.99,,2013-03-21 04:13:00,
2013-03-20 23:22:00,16.0,10.0,-100.00,NNE,20,4.0,9.0,76,0.00,,,-99.99,,2013-03-21 04:22:00,
2013-03-20 23:33:00,15.0,9.0,-100.00,NNE,15,6.0,7.0,76,0.00,,,-99.99,,2013-03-21 04:33:00,
2013-03-20 23:43:00,15.0,9.0,-100.00,NNE,15,6.0,7.0,76,0.00,,,-99.99,,2013-03-21 04:43:00,
2013-03-20 23:52:00,15.0,9.0,-100.00,NNE,20,7.0,11.0,76,0.00,,,-99.99,,2013-03-21 04:52:00,